TimeCST,TemperatureF,Dew PointF,Humidity,Sea Level PressureIn,VisibilityMPH,Wind Direction,Wind SpeedMPH,Gust SpeedMPH,PrecipitationIn,Events,Conditions,WindDirDegrees,DateUTC
12:05 AM,24.8,23.0,93,30.12,1.2,Calm,Calm,-,N/A,,Clear,0,2012-11-20 06:05:00
12:31 AM,24.8,21.2,86,30.11,0.8,Calm,Calm,-,N/A,,Mist,0,2012-11-20 06:31:00
12:39 AM,23.0,21.2,93,30.11,1.2,Calm,Calm,-,N/A,,Partly Cloudy,0,2012-11-20 06:39:00
12:49 AM,19.4,17.6,93,30.12,0.5,WNW,5.8,-,N/A,Fog,Light Freezing Fog,300,2012-11-20 06:49:00
12:53 AM,21.0,19.0,92,30.18,0.2,WNW,6.9,-,N/A,Fog,Light Freezing Fog,300,2012-11-20 06:53:00
1:09 AM,23.0,21.2,93,30.12,1.0,Calm,Calm,-,N/A,,Mist,0,2012-11-20 07:09:00
1:13 AM,23.0,21.2,93,30.12,2.0,Calm,Calm,-,N/A,,Scattered Clouds,0,2012-11-20 07:13:00
1:33 AM,24.8,21.2,86,30.11,0.8,Calm,Calm,-,N/A,,Mist,0,2012-11-20 07:33:00
1:42 AM,23.0,21.2,93,30.11,0.2,Calm,Calm,-,N/A,Fog,Light Freezing Fog,0,2012-11-20 07:42:00
1:53 AM,23.0,19.9,88,30.16,0.5,Calm,Calm,-,N/A,Fog,Light Freezing Fog,0,2012-11-20 07:53:00
2:10 AM,21.2,21.2,100,30.12,0.2,Calm,Calm,-,N/A,Fog,Light Freezing Fog,0,2012-11-20 08:10:00
2:34 AM,19.4,17.6,93,30.13,1.0,WNW,4.6,-,N/A,,Mist,300,2012-11-20 08:34:00
2:45 AM,21.2,19.4,93,30.13,0.2,Calm,Calm,-,N/A,Fog,Light Freezing Fog,0,2012-11-20 08:45:00
2:53 AM,21.9,19.9,92,30.18,0.5,Calm,Calm,-,N/A,Fog,Light Freezing Fog,0,2012-11-20 08:53:00
2:57 AM,21.2,19.4,93,30.13,2.5,Calm,Calm,-,N/A,,Mostly Cloudy,0,2012-11-20 08:57:00
3:06 AM,21.2,19.4,93,30.13,0.8,Calm,Calm,-,N/A,,Mist,0,2012-11-20 09:06:00
3:15 AM,21.2,19.4,93,30.12,0.2,Calm,Calm,-,N/A,Fog,Light Freezing Fog,0,2012-11-20 09:15:00
3:53 AM,17.1,16.0,96,30.19,0.2,Calm,Calm,-,N/A,Fog,Light Freezing Fog,0,2012-11-20 09:53:00
4:09 AM,17.6,15.8,93,30.13,1.0,Calm,Calm,-,N/A,,Mist,0,2012-11-20 10:09:00
4:14 AM,19.4,15.8,86,30.13,3.0,Calm,Calm,-,N/A,,Mostly Cloudy,0,2012-11-20 10:14:00
4:19 AM,19.4,15.8,86,30.13,1.2,Calm,Calm,-,N/A,,Mostly Cloudy,0,2012-11-20 10:19:00
4:23 AM,19.4,17.6,93,30.12,0.2,Calm,Calm,-,N/A,Fog,Light Freezing Fog,0,2012-11-20 10:23:00
4:31 AM,19.4,17.6,93,30.12,0.2,Calm,Calm,-,N/A,Fog,Light Freezing Fog,0,2012-11-20 10:31:00
4:53 AM,21.0,19.0,92,30.18,0.2,Calm,Calm,-,N/A,Fog,Light Freezing Fog,0,2012-11-20 10:53:00
5:53 AM,21.0,19.0,92,30.18,0.2,Calm,Calm,-,N/A,Fog,Light Freezing Fog,0,2012-11-20 11:53:00
6:53 AM,19.0,16.0,88,30.20,0.2,WNW,3.5,-,N/A,Fog,Light Freezing Fog,300,2012-11-20 12:53:00
7:53 AM,19.9,17.1,89,30.20,0.2,Calm,Calm,-,N/A,Fog,Light Freezing Fog,0,2012-11-20 13:53:00
8:53 AM,23.0,19.9,88,30.20,0.2,Calm,Calm,-,N/A,Fog,Light Freezing Fog,0,2012-11-20 14:53:00
9:11 AM,24.8,23.0,93,30.13,1.2,Calm,Calm,-,N/A,,Scattered Clouds,0,2012-11-20 15:11:00
9:15 AM,24.8,23.0,93,30.13,3.0,Calm,Calm,-,N/A,,Scattered Clouds,0,2012-11-20 15:15:00
9:53 AM,30.0,28.0,92,30.19,3.0,Calm,Calm,-,N/A,,Clear,0,2012-11-20 15:53:00
10:53 AM,33.1,30.9,92,30.19,7.0,South,5.8,-,N/A,,Clear,170,2012-11-20 16:53:00
11:53 AM,39.9,30.9,70,30.17,10.0,SSW,5.8,-,N/A,,Clear,200,2012-11-20 17:53:00
12:53 PM,44.1,28.0,53,30.14,10.0,SSE,8.1,-,N/A,,Clear,150,2012-11-20 18:53:00
1:53 PM,46.9,25.0,42,30.10,10.0,SSE,8.1,-,N/A,,Clear,150,2012-11-20 19:53:00
2:53 PM,46.0,26.1,46,30.08,10.0,SSE,9.2,-,N/A,,Clear,150,2012-11-20 20:53:00
3:53 PM,44.1,30.0,58,30.08,10.0,SSE,8.1,-,N/A,,Clear,160,2012-11-20 21:53:00
4:53 PM,39.9,30.0,68,30.05,10.0,SE,8.1,-,N/A,,Clear,140,2012-11-20 22:53:00
5:53 PM,39.0,30.0,70,30.05,10.0,ESE,5.8,-,N/A,,Clear,120,2012-11-20 23:53:00
6:53 PM,37.0,30.0,76,30.04,10.0,SSE,10.4,-,N/A,,Clear,150,2012-11-21 00:53:00
7:53 PM,37.9,32.0,79,30.03,10.0,South,9.2,-,N/A,,Clear,170,2012-11-21 01:53:00
8:53 PM,35.1,30.0,82,30.03,10.0,South,4.6,-,N/A,,Clear,170,2012-11-21 02:53:00
9:53 PM,36.0,30.9,82,29.99,10.0,SE,9.2,-,N/A,,Clear,140,2012-11-21 03:53:00
10:53 PM,32.0,28.9,88,29.98,9.0,SSE,6.9,-,N/A,,Clear,160,2012-11-21 04:53:00
11:53 PM,32.0,28.9,88,29.97,9.0,South,5.8,-,N/A,,Clear,170,2012-11-21 05:53:00